Location: Waco, TX
(31.5480°N, 97.1670°W)
Time: 22:57:16
(UTC-05:00)

ISS - Pass Details

Date: 20 April 2018
Orbit: 403 x 406 km, 51.6° (Epoch: 23 April)

Event Time Altitude Azimuth Distance (km) Brightness Sun altitude
Rises 10:44:16 0° 254° (WSW) 2,306 -0.3 47.5°
Reaches altitude 10° 10:46:41 10° 272° (W) 1,451 -1.3 48.0°
Maximum altitude 10:49:13 20° 323° (NW) 982 -2.0 48.5°
Drops below altitude 10° 10:51:45 10° 14° (NNE) 1,457 -0.9 49.0°
Sets 10:54:11 0° 32° (NNE) 2,320 0.1 49.5°
